User: anonymous   Login
Location: Medlow Airstrip Trail, Medlow Bath NSW 2780, Australia
(33.6682°S, 150.3233°E)
Time: 04:34:00
(UTC+11:00)
Language:

Vanguard 2 Rocket - Orbit

View from above orbital plane
View from above orbital plane
View from above satellite
View from above satellite

Ground track
Ground track

The orbit data is extracted from the following two-line orbital elements,

1    12U 59001B   19293.50391714  .00000124  00000-0  51049-4 0  9992
2    12  32.9096 113.9602 1666983 249.1821  92.2769 11.44310281494942
Epoch (UTC): 20 October 2019 12:05:38
Eccentricity: 0.1666983
inclination: 32.9096°
perigee height: 553 km
apogee height: 3327 km
right ascension of ascending node: 113.9602°
argument of perigee: 249.1821°
revolutions per day: 11.44310281
mean anomaly at epoch: 92.2769°
orbit number at epoch: 49494

The dashed part of the orbit path shows where the satellite is in the earth's shadow,  

DLR